Welcome to the New NWS' Forecast!
Most changes are behind the scenes, but click here for differences you might notice.

Regional Weather Roundup (RWR)

Issued by Gray - Portland, ME (GYX)

                            
327 
ASUS41 KGYX 170210
RWRGYX
WEATHER ROUNDUP FOR MAINE AND NEW HAMPSHIRE
NATIONAL WEATHER SERVICE GRAY ME
1000 PM EDT THU AUG 16 2018

MEZ002-005-006-010-012-015-018-020-021-024-026-027-029-170300-
MAINE
  
CITY           SKY/WX    TMP DP  RH WIND       PRES   REMARKS
PORTLAND       FAIR      70  60  70 N3        30.07R                  
SANFORD        FAIR      62  59  90 CALM      30.07R                  
BAR HARBOR     MOCLDY    65  55  70 N3        30.06R                  
WISCASSET      FAIR      63  60  90 CALM      30.08R                  
ROCKLAND       FAIR      61  59  93 CALM      30.06R                  
FRYEBURG       FAIR      59  58  96 CALM      30.09R                  
LEWISTONAUBURN FAIR      64  59  83 CALM      30.08R                  
AUGUSTA        FAIR      63  56  78 NW7       30.08R                  
WATERVILLE     FAIR      64  54  69 N5        30.06R                  
BANGOR         FAIR      65  55  70 NW6       30.06R                  
GREENVILLE       N/A     60  53  77 NW6       30.09R                  
MILLINOCKET    CLOUDY    63  56  78 CALM      30.08R                  
HOULTON        FAIR      55  55 100 CALM      30.05S                  
PRESQUE ISLE   FAIR      55  51  86 VRB3      30.08R                  
FRENCHVILLE    FAIR      58  47  66 N6        30.08S                  
CARIBOU        FAIR      59  50  72 N6        30.06S                  
$$

NHZ002-005-008-009-011-012-014-170300-
NEW HAMPSHIRE
  
CITY           SKY/WX    TMP DP  RH WIND       PRES   REMARKS
PORTSMOUTH     CLEAR     70  58  66 CALM      30.05R                  
ROCHESTER      FAIR      66  61  84 NW5       30.07R                  
MANCHESTER     NOT AVBL                                               
CONCORD        FAIR      67  65  93 S3        30.08R                  
LACONIA        FAIR      64  59  83 CALM      30.09R                  
PLYMOUTH       FAIR      61  59  94 CALM      30.09R                  
BERLIN         FAIR      55  54  96 CALM      30.12R                  
WHITEFIELD     FAIR      58  56  93 CALM      30.12R                  
JAFFREY        NOT AVBL                                               
LEBANON        FAIR      65  60  84 S6        30.08R                  
MT WASHINGTON  PTCLDY    46  27  46 NW41        N/A                   
$$

VTZ005-007-008-170300-
VERMONT
  
CITY           SKY/WX    TMP DP  RH WIND       PRES   REMARKS
ST JOHNSBURY     N/A     60  57  89 MISG      30.09R                  
MONTPELIER     FAIR      61  57  87 CALM      30.15R                  
BURLINGTON     FAIR      66  58  75 CALM      30.09R                  
$$

MAZ007-012-024-CTZ003-RIZ002-NYZ038-NYZ072-170300-
SOUTHERN NEW ENGLAND AND NY
  
CITY           SKY/WX    TMP DP  RH WIND       PRES   REMARKS
BOSTON         MOCLDY    78  67  68 SE3       30.05R                  
WORCESTER      FAIR      73  68  84 W9        30.10R                  
NANTUCKET      FAIR      76  70  82 W9        30.05R                  
PROVIDENCE     FAIR      79  71  76 W7        30.06R                  
HARTFORD       FAIR      78  71  79 W5        30.06R                  
ALBANY         FAIR      76  68  76 SW3       30.07R                  
NEW YORK CITY  FAIR      88  67  49 SW9       30.06R HX  91           
$$

ANZ081-ANZ082-ANZ150-NHZ014-MEZ023>029-170300-
COASTAL MARINE OBSERVATIONS
  
STATION/POSITION TIME  TEMP    WIND        PRES    WAVE
                       AIR SEA DIR/SP/G            HT/PER
                 (UTC) (F)     (DEG/KT/KT) (MB)    (FT/S)
MOUNT DESERT ROC 0100   71     330/  9/  9 1016.9R
MATINICUS ROCK   0100   67     200/  1/  2 1016.9R
ISLE OF SHOALS   0100   77     350/  7/  8 1016.6R
JEFFREYS LEDGE   0136      71                N/A     2/ 7
$$

.............KEY..............
   WCI - WIND CHILL
   TC  - TEMPERATURE IN CELSIUS
   VSB - VISIBILITY IN MILES
   HX  - HEAT INDEX
   FAIR- INDICATES FEW OR NO CLOUDS BELOW 12,000 FT, WITH NO 
         SIGNIFICANT WEATHER AND/OR OBSTRUCTIONS TO VISIBILITY.